| time (UTC) | temp F | wind direction | speed MPH | gust MPH | rain 1hr in | rain 24hr in | rain mn in | humidity % | barometer mb |
| 20260831214557 | 70 | 257 | 0.0 | 3.0 | 0.00 | 0.00 | 0.00 | 35 | 1006.0 |
| 20260831213053 | 71 | 293 | 0.0 | 2.0 | 0.00 | 0.00 | 0.00 | 31 | 1006.0 |
| 20260831211548 | 71 | 240 | 0.0 | 3.0 | 0.00 | 0.00 | 0.00 | 31 | 1006.2 |
| 20260831210048 | 71 | 235 | 0.0 | 3.0 | 0.00 | 0.00 | 0.00 | 31 | 1006.3 |
| 20260831204554 | 71 | 283 | 0.0 | 2.0 | 0.00 | 0.00 | 0.00 | 31 | 1006.3 |
| 20260831203058 | 72 | 208 | 0.0 | 1.0 | 0.00 | 0.00 | 0.00 | 29 | 1006.5 |
| 20260831201542 | 70 | 274 | 0.0 | 3.0 | 0.00 | 0.00 | 0.00 | 24 | 1006.6 |
| 20260831200041 | 71 | 250 | 0.0 | 3.0 | 0.00 | 0.00 | 0.00 | 26 | 1006.7 |
| 20260831194538 | 70 | 267 | 0.0 | 2.0 | 0.00 | 0.00 | 0.00 | 28 | 1007.0 |
| 20260831193035 | 70 | 243 | 0.0 | 1.0 | 0.00 | 0.00 | 0.00 | 28 | 1007.2 |
| 20260831191543 | 69 | 256 | 0.0 | 2.0 | 0.00 | 0.00 | 0.00 | 27 | 1007.4 |
| 20260831190032 | 69 | 252 | 0.0 | 1.0 | 0.00 | 0.00 | 0.00 | 28 | 1007.6 |
| 20260831184528 | 68 | 239 | 0.0 | 1.0 | 0.00 | 0.00 | 0.00 | 25 | 1007.6 |
| 20260831183028 | 68 | 257 | 0.0 | 2.0 | 0.00 | 0.00 | 0.00 | 23 | 1007.6 |
| 20260831181525 | 67 | 273 | 0.0 | 1.0 | 0.00 | 0.00 | 0.00 | 23 | 1007.5 |
| 20260831180021 | 65 | 176 | 0.0 | 1.0 | 0.00 | 0.00 | 0.00 | 32 | 1007.5 |
| 20260831174517 | 64 | 304 | 0.0 | 1.0 | 0.00 | 0.00 | 0.00 | 38 | 1007.5 |
| 20260831173017 | 63 | 141 | 0.0 | 1.0 | 0.00 | 0.00 | 0.00 | 38 | 1007.6 |
| 20260831171514 | 62 | 172 | 0.0 | 1.0 | 0.00 | 0.00 | 0.00 | 47 | 1007.6 |
| 20260831170005 | 61 | 232 | 0.0 | 1.0 | 0.00 | 0.00 | 0.00 | 50 | 1007.7 |
| 20260831164502 | 59 | 207 | 0.0 | 0.0 | 0.00 | 0.00 | 0.00 | 54 | 1007.7 |
| 20260831163059 | 58 | 176 | 0.0 | 0.0 | 0.00 | 0.00 | 0.00 | 60 | 1007.7 |
| 20260831161553 | 56 | 181 | 0.0 | 0.0 | 0.00 | 0.00 | 0.00 | 68 | 1007.9 |
| 20260831160052 | 54 | 182 | 0.0 | 0.0 | 0.00 | 0.00 | 0.00 | 66 | 1008.1 |
| 20260831154544 | 52 | 182 | 0.0 | 0.0 | 0.00 | 0.00 | 0.00 | 66 | 1008.3 |
| 20260831153043 | 50 | 182 | 0.0 | 0.0 | 0.00 | 0.00 | 0.00 | 64 | 1008.4 |
| 20260831151537 | 49 | 181 | 0.0 | 0.0 | 0.00 | 0.00 | 0.00 | 60 | 1008.5 |
| 20260831150037 | 48 | 179 | 0.0 | 1.0 | 0.00 | 0.00 | 0.00 | 58 | 1008.6 |
| 20260831144535 | 46 | 163 | 0.0 | 1.0 | 0.00 | 0.00 | 0.00 | 55 | 1008.6 |
| 20260831143035 | 46 | 188 | 0.0 | 0.0 | 0.00 | 0.00 | 0.00 | 54 | 1008.4 |
| 20260831141534 | 46 | 191 | 0.0 | 0.0 | 0.00 | 0.00 | 0.00 | 52 | 1008.3 |
| 20260831140036 | 45 | 181 | 0.0 | 0.0 | 0.00 | 0.00 | 0.00 | 52 | 1008.3 |
| 20260831134531 | 45 | 204 | 0.0 | 0.0 | 0.00 | 0.00 | 0.00 | 53 | 1008.2 |
| 20260831133035 | 46 | 172 | 0.0 | 0.0 | 0.00 | 0.00 | 0.00 | 53 | 1008.3 |
| 20260831131529 | 46 | 141 | 0.0 | 0.0 | 0.00 | 0.00 | 0.00 | 51 | 1008.4 |
| 20260831130027 | 47 | 137 | 0.0 | 1.0 | 0.00 | 0.00 | 0.00 | 51 | 1008.4 |
| 20260831124546 | 47 | 191 | 0.0 | 1.0 | 0.00 | 0.00 | 0.00 | 51 | 1008.2 |
| 20260831123024 | 47 | 179 | 0.0 | 0.0 | 0.00 | 0.00 | 0.00 | 51 | 1008.2 |
| 20260831121524 | 47 | 179 | 0.0 | 0.0 | 0.00 | 0.00 | 0.00 | 51 | 1008.2 |
| 20260831120023 | 47 | 167 | 0.0 | 0.0 | 0.00 | 0.00 | 0.00 | 52 | 1008.2 |
| 20260831114534 | 47 | 162 | 0.0 | 0.0 | 0.00 | 0.00 | 0.00 | 52 | 1008.2 |
| 20260831113020 | 47 | 180 | 0.0 | 0.0 | 0.00 | 0.00 | 0.00 | 54 | 1008.3 |
| 20260831111517 | 47 | 183 | 0.0 | 0.0 | 0.00 | 0.00 | 0.00 | 55 | 1008.5 |
| 20260831110018 | 47 | 149 | 0.0 | 0.0 | 0.00 | 0.00 | 0.00 | 56 | 1008.5 |
| 20260831104524 | 48 | 149 | 0.0 | 1.0 | 0.00 | 0.00 | 0.00 | 55 | 1008.5 |
| 20260831103015 | 48 | 138 | 0.0 | 0.0 | 0.00 | 0.00 | 0.00 | 56 | 1008.6 |
| 20260831101512 | 48 | 134 | 0.0 | 0.0 | 0.00 | 0.00 | 0.00 | 56 | 1008.6 |
| 20260831100010 | 48 | 122 | 0.0 | 1.0 | 0.00 | 0.00 | 0.00 | 56 | 1008.6 |
| 20260831094510 | 49 | 188 | 0.0 | 1.0 | 0.00 | 0.00 | 0.00 | 56 | 1008.7 |
| 20260831093008 | 49 | 145 | 0.0 | 1.0 | 0.00 | 0.00 | 0.00 | 55 | 1008.7 |
| 20260831091506 | 49 | 150 | 0.0 | 1.0 | 0.00 | 0.00 | 0.00 | 56 | 1008.8 |
| 20260831090006 | 49 | 183 | 0.0 | 0.0 | 0.00 | 0.00 | 0.00 | 57 | 1008.9 |
| 20260831084509 | 48 | 151 | 0.0 | 1.0 | 0.00 | 0.00 | 0.00 | 59 | 1009.0 |
| 20260831083002 | 48 | 179 | 0.0 | 0.0 | 0.00 | 0.00 | 0.00 | 59 | 1009.0 |
| 20260831081501 | 48 | 187 | 0.0 | 0.0 | 0.00 | 0.00 | 0.00 | 59 | 1009.1 |
| 20260831074558 | 49 | 215 | 0.0 | 1.0 | 0.00 | 0.00 | 0.00 | 58 | 1009.1 |
| 20260831073059 | 49 | 186 | 0.0 | 0.0 | 0.00 | 0.00 | 0.00 | 58 | 1009.1 |
| 20260831071554 | 49 | 191 | 0.0 | 0.0 | 0.00 | 0.00 | 0.00 | 59 | 1009.0 |
| 20260831070055 | 49 | 201 | 0.0 | 0.0 | 0.00 | 0.00 | 0.00 | 59 | 1009.1 |
| 20260831064553 | 50 | 201 | 0.0 | 0.0 | 0.00 | 0.00 | 0.00 | 60 | 1009.1 |
| 20260831063052 | 50 | 197 | 0.0 | 0.0 | 0.00 | 0.00 | 0.00 | 61 | 1009.1 |
| 20260831061552 | 50 | 198 | 0.0 | 0.0 | 0.00 | 0.00 | 0.00 | 62 | 1009.0 |
| 20260831060051 | 50 | 169 | 0.0 | 0.0 | 0.00 | 0.00 | 0.00 | 61 | 1009.1 |
| 20260831054550 | 51 | 149 | 0.0 | 1.0 | 0.00 | 0.00 | 0.00 | 61 | 1009.0 |
| 20260831053050 | 51 | 118 | 0.0 | 0.0 | 0.00 | 0.00 | 0.00 | 61 | 1009.1 |
| 20260831051550 | 52 | 117 | 0.0 | 0.0 | 0.00 | 0.00 | 0.00 | 60 | 1009.2 |
| 20260831044603 | 53 | 117 | 0.0 | 0.0 | 0.00 | 0.00 | 0.00 | 58 | 1009.1 |
| 20260831043048 | 53 | 201 | 0.0 | 0.0 | 0.00 | 0.00 | 0.00 | 58 | 1009.0 |
| 20260831041559 | 54 | 203 | 0.0 | 0.0 | 0.00 | 0.00 | 0.00 | 57 | 1009.0 |
| 20260831040048 | 55 | 204 | 0.0 | 0.0 | 0.00 | 0.00 | 0.00 | 57 | 1008.8 |
| 20260831034546 | 56 | 204 | 0.0 | 0.0 | 0.00 | 0.00 | 0.00 | 56 | 1008.6 |
| 20260831033048 | 57 | 204 | 0.0 | 0.0 | 0.00 | 0.00 | 0.00 | 55 | 1008.4 |
| 20260831031552 | 58 | 204 | 0.0 | 0.0 | 0.00 | 0.00 | 0.00 | 55 | 1008.4 |
| 20260831030053 | 59 | 204 | 0.0 | 0.0 | 0.00 | 0.00 | 0.00 | 54 | 1008.2 |
| 20260831024608 | 60 | 204 | 0.0 | 0.0 | 0.00 | 0.00 | 0.00 | 54 | 1008.1 |
| 20260831023044 | 61 | 204 | 0.0 | 0.0 | 0.00 | 0.00 | 0.00 | 52 | 1007.9 |
| 20260831021544 | 62 | 204 | 0.0 | 0.0 | 0.00 | 0.00 | 0.00 | 50 | 1008.0 |
| 20260831014558 | 64 | 259 | 0.0 | 0.0 | 0.00 | 0.00 | 0.00 | 46 | 1008.1 |
| 20260831013042 | 65 | 259 | 0.0 | 1.0 | 0.00 | 0.00 | 0.00 | 43 | 1008.0 |
| 20260831011542 | 66 | 246 | 0.0 | 1.0 | 0.00 | 0.00 | 0.00 | 40 | 1008.0 |
| 20260831010046 | 67 | 280 | 0.0 | 1.0 | 0.00 | 0.00 | 0.00 | 39 | 1008.2 |
| 20260831004538 | 68 | 219 | 0.0 | 1.0 | 0.00 | 0.00 | 0.00 | 36 | 1008.1 |
| 20260831003039 | 69 | 338 | 0.0 | 1.0 | 0.00 | 0.00 | 0.00 | 36 | 1008.2 |
| 20260831001542 | 70 | 227 | 0.0 | 1.0 | 0.00 | 0.00 | 0.00 | 35 | 1008.2 |
| 20260831000036 | 70 | 242 | 0.0 | 1.0 | 0.00 | 0.00 | 0.00 | 35 | 1008.4 |
| 20260830234553 | 71 | 61 | 0.0 | 1.0 | 0.00 | 0.00 | 0.00 | 31 | 1008.4 |
| 20260830233035 | 72 | 223 | 0.0 | 2.0 | 0.00 | 0.00 | 0.00 | 30 | 1008.4 |
| 20260830231532 | 72 | 256 | 0.0 | 1.0 | 0.00 | 0.00 | 0.00 | 30 | 1008.5 |
| 20260830230036 | 72 | 231 | 0.0 | 2.0 | 0.00 | 0.00 | 0.00 | 28 | 1008.7 |
| 20260830224533 | 72 | 269 | 0.0 | 2.0 | 0.00 | 0.00 | 0.00 | 27 | 1008.8 |
| 20260830223024 | 71 | 92 | 0.0 | 3.0 | 0.00 | 0.00 | 0.00 | 30 | 1009.0 |
| 20260830221524 | 70 | 252 | 0.0 | 1.0 | 0.00 | 0.00 | 0.00 | 28 | 1009.2 |
| 20260830220029 | 69 | 190 | 0.0 | 4.0 | 0.00 | 0.00 | 0.00 | 28 | 1009.6 |